Regional Weather Roundup
Issued by NWS Grand Forks, ND

Home | Current Version | Previous Version | Graphics & Text | Print | Product List | Glossary On
Versions: 1 2 3 4 5 6 7 8 9 10 11 12 13 14 15 16 17 18 19 20 21 22 23 24 25 26 27 28 29 30 31 32 33 34 35 36 37 38 39 40 41 42 43 44 45 46 47 48 49 50
000
ASUS43 KFGF 060231
RWRFGF
PRAIRIE TO PINES  WEATHER ROUNDUP
NATIONAL WEATHER SERVICE EASTERN NORTH DAKOTA/GRAND FORKS ND
900 PM CDT SUN JUL 05 2015

 **SATELLITE DATA USED TO AUGMENT SKY COVER AT AUTOMATED STATIONS**
 *****  WEATHER ACROSS EASTERN NORTH DAKOTA  *****

CITY           SKY/WX    TMP DP  RH WIND       PRES   REMARKS
GRAND FORKS    MOCLDY    69  62  78 N10       29.85R HAZE
GRAND FRKS AFB CLOUDY    67  60  77 N7        29.86R HAZE
GRAND FRKS NWS   N/A     66 N/A N/A N3          N/A
DEVILS LAKE    CLOUDY    66  55  68 NW7       29.91R
FARGO          MOCLDY    73  66  78 N16       29.79F
WAHPETON ARPT  PTCLDY    72  63  73 N9        29.80R
$$

 ***** WEATHER ACROSS CENTRAL AND WESTERN NORTH DAKOTA  *****

CITY           SKY/WX    TMP DP  RH WIND       PRES   REMARKS
BISMARCK       CLOUDY    71  62  73 NW7       29.97R HAZE
MINOT          CLOUDY    66  55  67 NW9       29.97R HAZE
JAMESTOWN      CLOUDY    70  65  84 W7        29.91R HAZE
MINOT AFB      MOCLDY    70  62  76 NW9       29.96R
GARRISON         N/A     66  60  81 NW6       29.98R
WILLISTON      CLOUDY    71  49  45 N9        30.03S
DICKINSON      CLOUDY    65  55  70 N7        30.03R HAZE
HETTINGER      CLOUDY    63  56  78 NW7       30.05S HAZE
$$

 *****  OTHER AIRPORT OBSERVATIONS IN OUR AREA  *****

CITY           SKY/WX    TMP DP  RH WIND       PRES   REMARKS
WALHALLA       FAIR      66  64  94 MISG      29.88R FOG
GRAFTON AIRPOR FAIR      66  63  88 NW5       29.87R FOG
VALLEY CITY AR LGT RAIN  68  68 100 NW13      29.88R
CANDO          FAIR      64  59  82 NW7       29.94R HAZE
CAVALIER APRT  FAIR      66  61  82 NW5       29.87S HAZE
GWINNER        FAIR      73  66  78 NW12      29.86R
SHEYENNE NWR     N/A     74  65  72 N9        29.95S
ROLLA          FAIR      63  57  82 NW8       29.96R FOG
 ***** THE ABOVE OBSERVATIONS ARE NON NWS ARE NOT QUALITY
       CONTROLLED AND MAY MIS-REPORT RAIN FOR SNOW...
$$

  *****  WEATHER ACROSS NORTHERN MINNESOTA  *****

CITY           SKY/WX    TMP DP  RH WIND       PRES   REMARKS
FLAG ISLAND    MOCLDY    68  61  77 NW14      29.82R HAZE
WARROAD        PTCLDY    66  63  88 NW6       29.84S FOG
ROSEAU         MOCLDY    66  61  82 NW8       29.84S HAZE
HALLOCK        CLOUDY    64  63  94 NW3       29.86R FOG
THF RVR FALLS  PTCLDY    68  64  88 NW10      29.85R
BAUDETTE       PTCLDY    66  62  87 NW5       29.81R
WASKISH        CLOUDY    70  64  83 N6        29.80S
CROOKSTON      MOCLDY    70  66  88 N15       29.84R FOG
STEPHEN NDAWN    N/A     66  63  88 N5          N/A
GREENBUSH NDAW   N/A     64  63  94 NW3         N/A
$$
  *****  WEATHER ACROSS CENTRAL AND WEST MINNESOTA  *****

CITY           SKY/WX    TMP DP  RH WIND       PRES   REMARKS
FOSSTON        PTCLDY    66  63  88 NW10      29.83R
BEMIDJI        PTCLDY    67  66  94 NW6       29.80F
PARK RAPIDS    MOCLDY    72  67  84 N7        29.80S
ELBOW LAKE     FAIR      78  71  78 N20       29.77R
WADENA         CLOUDY    73  68  83 N10       29.80R
DETROIT LAKES  PTCLDY    70  64  83 N9G18     29.82S
MOORHEAD       PTCLDY    72  66  83 N10       29.80R
FERGUS FALLS   PTCLDY    73  66  78 N7        29.79R
MORRIS MN      TSTM      72  66  83 SE14G25   29.78F
STAPLES        TSTM      79  68  69 S3        29.77R
$$
  *****  WEATHER ELSEWHERE ACROSS MINNESOTA  *****

CITY           SKY/WX    TMP DP  RH WIND       PRES   REMARKS
DULUTH         MOCLDY    78  69  73 S8        29.77F THUNDER
INTRNTL FALLS  CLEAR     69  63  81 NW12      29.77S
ELY            TSTM      66  64  94 W7        29.79R
CLOQUET        MOCLDY    75  68  78 S10G17    29.78R
WHEATON        PTCLDY    73  66  78 N16G23    29.78R
BRAINERD       PTCLDY    80  69  69 S8        29.74F
HIBBING        TSTM      67  64  90 NW9       29.75R FOG
ALEXANDRIA     HVY RAIN  71  69  93 NW13      29.82R FOG
SAINT CLOUD    CLEAR     81  72  74 S7        29.76F
MINNEAPOLIS    MOCLDY    82  68  62 S14G20    29.79F
$$

  *****  WEATHER ACROSS SOUTH DAKOTA  *****

CITY           SKY/WX    TMP DP  RH WIND       PRES   REMARKS
SIOUX FALLS    CLOUDY    82  73  74 S13       29.75F
BROOKINGS      PTCLDY    81  72  74 S10       29.78R
WATERTOWN      TSTM      69  68  96 N9        29.84R VSB 1
HURON          CLOUDY    75  70  84 VRB6G24   29.75R
SISSETON         N/A     78  68  71 N13       29.78R
ABERDEEN       CLOUDY    76  65  68 N17       29.81R
MITCHELL       PTCLDY    83  75  77 S8        29.71R HX  90
PIERRE         CLOUDY    73  64  73 N22G31    29.85R
MOBRIDGE       LGT RAIN  68  66  93 N13       29.90R FOG
RAPID CITY     LGT RAIN  62  61  96 N18G33    30.03R FOG
$$

  *****  SOME WEATHER IN NEARBY STATES *****

CITY           SKY/WX    TMP DP  RH WIND       PRES   REMARKS
GLASGOW MT     MOCLDY    65  53  65 W13       30.09S
GREAT FALLS MT LGT RAIN  50  48  93 N9        30.24R FOG
CHEYENNE WY    CLOUDY    61  59  93 N16G28    30.10R
SCOTTSBLUFF NE LGT RAIN  66  32  28 NW17G28   29.93S
OMAHA NE       TSTM      84  75  74 SE15      29.77F HX  92
DES MOINES IA  PTCLDY    81  69  67 SE13      29.87F
DAVENPORT IA   PTCLDY    75  65  70 SE7       29.98S
CHICAGO IL     CLEAR     74  60  61 S7        30.01S
EAU CLAIRE WI  PTCLDY    77  65  66 S15G22    29.85F
LA CROSSE WI   PTCLDY    78  65  63 SE9       29.89F
$$

  *****  SOME NATIONAL WEATHER *****

CITY           SKY/WX    TMP DP  RH WIND       PRES   REMARKS
LA GUARDIA NY  MOCLDY    75  64  68 S9        30.13R
RALEIGH NC     LGT RAIN  70  68  94 CALM      30.12F FOG
ATLANTA GA     MOCLDY    76  67  73 SW5       30.13R
NEW ORLEANS LA CLOUDY    75  66  73 NE9       30.14F
OKLAHOMA CITY  MOCLDY    82  71  69 S10       29.92R
ALBUQUERQUE NM CLOUDY    72  57  59 W8        30.11R
SALT LAKE CITY PTCLDY    86  58  38 N14       29.97R
LOS ANGELES CA CLOUDY    65  60  84 W12       29.96S
BOISE ID       PTSUNNY   80  52  37 S9        29.93F
SEATTLE WA     MOSUNNY   89  46  22 NW7       29.84R
$$

*** WEATHER ACROSS MANITOBA...SASKATCHEWAN AND ONTARIO ***
                ***ONTARIO***

CITY           SKY/WX    TMP DP  RH WIND       PRES   REMARKS
GERALDTON      CLOUDY    66  61  82 S8        29.78F HAZE
THUNDER BAY    CLOUDY    61  59  94 NE9       29.76F
SIOUX LOOKOUT  CLOUDY    61  59  94 N6        29.77R SMOKE
TORONTO        CLOUDY    75  61  60 SW7       30.09S
BIG TROUT LK   CLOUDY    57  55  94 CALM      29.61  FOG
PICKLE LAKE    LGT RAIN  61  59  94 VRB3      29.71S FOG
DRYDEN         CLOUDY    61  59  94 W8        29.79R FOG
KENORA         MOCLDY    64  61  88 W3        29.82S SMOKE
$$
                *** MANITOBA***

CITY           SKY/WX    TMP DP  RH WIND       PRES   REMARKS
BRANDON        MOCLDY    63  54  72 NW8       29.94R
DAUPHIN        PTCLDY    59  50  72 N9G17     29.99R
ISLAND LAKE    CLOUDY    50  41  71 NW12G22   29.82
PILOT MOUND      N/A     63  55  77 NW9         N/A
THE PAS        PTCLDY    55  43  62 N16G24    30.02R
THOMPSON       MOCLDY    48  41  76 NW15G22   29.94R
WINNIPEG       MOCLDY    63  57  82 NW7       29.87R SMOKE
LYNN LAKE      CLEAR     55  39  54 NE5       30.03R
CHURCHILL      LGT RAIN  41  39  93 N28G35    29.82S FOG
GILLAM         LGT RAIN  45  43  93 N21G26    29.77
$$
                ***SASKATCHEWAN***

CITY           SKY/WX    TMP DP  RH WIND       PRES   REMARKS
ESTEVAN        CLOUDY    64  50  59 N9        30.02S
KINDERSLEY     CLOUDY    59  48  67 N8        30.15R
LLOYDMINSTER   MOSUNNY   61  43  51 CALM      30.15S
PRINCE ALBERT  PTSUNNY   61  45  55 N5        30.08R
REGINA         MOCLDY    63  50  63 N14       30.06R
YORKTON        MOCLDY    59  48  67 N16       30.03R HAZE
N. BATTLEFORD  SUNNY     61  46  59 N7        30.14R
LA RONGE       NOT AVBL
SASKATOON      PTSUNNY   61  45  55 NE9       30.11R
SWIFT CURRENT  CLOUDY    59  46  63 NW8       30.12R
$$
NOTE: THESE ARE AUTOMATED STATIONS WITH LIMITED QUALITY CONTROL
      "FAIR" INDICATES FEW OR NO CLOUDS BELOW 12,000 FEET WITH NO
      SIGNIFICANT WEATHER AND/OR OBSTRUCTIONS TO VISIBILITY.
      SKY/WX - SKY CONDITION AND SIGNIFICANT WEATHER.
      TMP - AIR TEMPERATURE.    DP   - DEWPOINT TEMPERATURE.
      RH  - RELATIVE HUMIDITY.  PRES - PRESSURE.
      HX  - HEAT INDEX.         WCI  - WIND CHILL INDEX.
$



USA.gov is the U.S. government's official web portal to all federal, state and local government web resources and services.